Orbital elements:
2020 KQ5                                                 Earth MOID = 0.0765 AU
Epoch 2020 May 26.0 TT = JDT 2458995.5                  Bell                    
M  13.76857              (2000.0)            P               Q                  
n   0.23973128     Peri.   29.15661     -0.64104381     -0.75908651             
a   2.5663719      Node   100.95233     +0.67990112     -0.63017227             
e   0.8483627      Incl.    6.63034     +0.35608608     -0.16331130             
P   4.11           H   20.21          G   0.15           U   9                  
Residuals in seconds of arc
200525 T05  0.4-  0.2-    200526 L01  0.2-  0.4+    200526 595  0.3+  0.6-
200525 T05  0.0+  0.2-    200526 L01  0.2-  0.1+    200526 203  0.1-  0.2-
200525 T05  0.5+  0.1-    200526 L01  0.2-  0.1+    200526 595  0.1+  0.3-
200525 T05  0.3+  0.5-    200526 L01  0.2-  0.1-    200526 203  0.2-  0.1+
200525 N88  0.2-  0.1-    200526 L01  0.1-  0.0-    200526 B49  0.1+  0.4+
200525 N88  0.1-  0.1-    200526 J95  0.2-  0.1+    200526 203  0.2-  0.2+
200525 N88  0.0+  0.1-    200526 J95  0.0-  0.1-    200526 B49  0.0-  0.2-
200525 N88  0.1-  1.0-    200526 J95  0.1+  0.0-    200526 B49  0.5+  0.2-
200525 K96  0.9+  0.8-    200526 J95  0.1+  0.2-    200526 118  0.3-  0.7+
200525 I93  0.1-  0.2+    200526 I52  0.1-  0.0-    200526 118  0.1-  1.4-
200525 A17  0.4-  0.2+    200526 I52  0.2-  0.1+    200526 118  0.6+  1.6-
200525 K96  0.2-  0.3+    200526 I52  0.0+  0.1+    200527 K87  0.3+  0.8+
200525 I93  0.2-  0.4+    200526 I52  0.1-  0.0-    200527 K87  0.4-  0.3+
200525 A17  0.1-  0.1-    200526 H21  0.0-  0.1-    200527 K38  0.2-  0.3-
200525 I93  0.1-  0.3+    200526 H21  0.2+  0.1-    200527 K87  0.0+  0.1-
200525 A17  0.2-  0.4+    200526 H21  0.1+  0.1+    200527 K38  0.1-  0.0+
200525 204  0.2-  0.6+    200526 H21  0.1-  0.3+    200527 J95  0.2-  0.0+
200525 Z80  0.2+  0.2-    200526 G58  0.2-  0.0+    200527 J95  0.4-  0.1-
200525 204  0.1-  0.4-    200526 G58  0.2-  0.0-    200527 K38  0.1+  0.4-
200525 Z80  0.0+  0.7+    200526 G58  0.0-  0.3+    200527 J95  0.4-  0.1+
200526 Z80  1.1+  0.1+    200526 G58  0.2-  0.1-    200527 K38  0.4-  0.3+
200526 958  0.1-  0.2+    200526 673  0.0+  0.0+    200527 I52  0.1-  0.1-
200526 958  0.0+  0.1+    200526 673  0.0+  0.0+    200527 I52  0.4-  0.3-
200526 958  0.1+  0.2-    200526 673  0.2+  0.1-    200527 I52  2.1+  1.4+
200526 L01  0.1-  0.1-    200526 595  0.1-  0.1+    200527 I52  0.6-  0.2+
Ephemeris:
2020 KQ5                 a,e,i = 2.57, 0.85, 7                   q = 0.3892
Date    TT    R. A. (2000) Decl.     Delta      r    Elong.  Phase     V
2020 04 27    00 37 18.3 +20 35 43   0.2812  0.7612    25.0   146.0    24.6
...
2020 05 12    21 18 21.4 +12 01 01   0.1726  1.0122    85.8    84.4    19.4
...
2020 05 20    19 08 14.7 +00 34 27   0.1941  1.1389   126.8    45.3    18.7
...
2020 05 26    18 00 53.7 -05 47 39   0.2449  1.2304   149.5    24.7    18.8
2020 05 27    17 52 15.3 -06 35 22   0.2554  1.2454   152.5    22.1    18.8
2020 05 28    17 44 14.5 -07 19 13   0.2663  1.2603   155.3    19.7    18.8
...
2020 06 03    17 06 58.8 -10 37 58   0.3399  1.3479   167.2     9.6    19.1
...
2020 06 11    16 36 59.9 -13 15 56   0.4542  1.4605   166.2     9.5    19.9
...
2020 06 26    16 11 35.7 -15 57 10   0.7039  1.6598   149.0    18.4    21.5

M. P. C. Staff               (C) Copyright 2020 MPC           M.P.E.C. 2020-K194




More information about the Iaude mailing list